Search for airport 
image banner adimage banner adimage banner ad
image banner ad

CN30 - Oceanside Fire Department

Located in Oceanside, United States

ICAO - CN30, IATA -

Data provided by Airmate  

General information

Coordinates: N33°12'42" W117°21'15"
Elevation is 30 feet MSL.
 
View others Airports in California

Operational data

Special qualification required
Current time UTC:
Current local time:
METAR: KOKB 212152Z AUTO 25010KT 8SM CLR 28/19 A2999 RMK AO2 SLP156 T02830189
View NOTAMs / SUP AIP / TFR affecting this airport [VIEW]
Communications frequencies: [VIEW]

Runways:

Airport contact information

Address: Oceanside United States

Satellite view of CN30